This is the latest recevied weather packets stored in our database for station/object XQ6AK-15. If no packets are shown the sender has not sent any weather packets the latest 10 day(s).
| Time | Temp. | Humidity | Pressure | Rain* | Wind** | Luminosity | Snow |
|---|---|---|---|---|---|---|---|
| 1787942415 | 8.33° C | 99% | 1006.8 hPa | 0 mm | - | 170 W/m² | - |
| 1787942109 | 8.33° C | 99% | 1006.8 hPa | 0 mm | - | 180 W/m² | - |
| 1787941805 | 7.78° C | 99% | 1006.8 hPa | 0 mm | - | 167 W/m² | - |
| 1787941504 | 7.78° C | 99% | 1006.9 hPa | 0 mm | - | 224 W/m² | - |
| 1787941204 | 7.78° C | 99% | 1006.9 hPa | 0 mm | - | 146 W/m² | - |
| 1787940898 | 7.22° C | 99% | 1007.1 hPa | 0 mm | - | 180 W/m² | - |
| 1787940596 | 7.22° C | 99% | 1007.3 hPa | 0 mm | - | 104 W/m² | - |
| 1787940290 | 7.22° C | 99% | 1007.3 hPa | 0 mm | - | 86 W/m² | - |
| 1787939989 | 7.22° C | 99% | 1007.5 hPa | 0 mm | - | 78 W/m² | - |
| 1787939684 | 7.22° C | 99% | 1007.5 hPa | 0 mm | - | 52 W/m² | - |
| 1787939378 | 7.22° C | 99% | 1007.7 hPa | 0 mm | - | 61 W/m² | - |
| 1787939074 | 7.22° C | 99% | 1007.7 hPa | 0 mm | - | 66 W/m² | - |
| 1787938773 | 7.22° C | 99% | 1007.6 hPa | 0 mm | - | 78 W/m² | - |
| 1787938469 | 6.67° C | 99% | 1007.6 hPa | 0 mm | - | 95 W/m² | - |
| 1787938164 | 6.67° C | 99% | 1007.7 hPa | 1.78 mm | - | 97 W/m² | - |
| 1787937859 | 6.67° C | 99% | 1007.9 hPa | 1.78 mm | - | 115 W/m² | - |
| 1787937555 | 6.67° C | 99% | 1007.8 hPa | 1.27 mm | - | 140 W/m² | - |
| 1787937251 | 6.67° C | 99% | 1008.1 hPa | 3.05 mm | - | 87 W/m² | - |
| 1787936946 | 7.22° C | 99% | 1008.1 hPa | 4.83 mm | - | 65 W/m² | - |
| 1787936645 | 7.22° C | 99% | 1008.1 hPa | 6.1 mm | - | 41 W/m² | - |
| 1787936345 | 7.22° C | 99% | 1008.1 hPa | 7.87 mm | - | 21 W/m² | - |
| 1787936040 | 7.78° C | 99% | 1008.1 hPa | 7.87 mm | - | 16 W/m² | - |
| 1787935735 | 7.78° C | 99% | 1008 hPa | 10.67 mm | - | 13 W/m² | - |
| 1787935432 | 7.78° C | 99% | 1008 hPa | 9.65 mm | - | 13 W/m² | - |
| 1787935128 | 7.78° C | 99% | 1008.1 hPa | 6.6 mm | - | 13 W/m² | - |
* Rain latest hour (hover to see other rain measurements)
** Current wind speed in m/s (hover to see current wind gust speed)